sat.trackr.live / text

‹ back to catalog

STARLINK-3555

NORAD 51863 · 2022-022M

PAYLOAD ACTIVE UNKNOWN

§ Identity

Operator
Country
US
Launch date
2022-03-03
Launch site
AFETR
Launch vehicle
Mass (kg)
RCS (m²)

Purposes: comms

External: N2YO · Heavens-Above · Gunter

§ Orbital elements

Epoch: 2026-09-20T04:00:03.000096Z

Period
93.85 min
Inclination
53.1589°
Eccentricity
0.0001423
Mean motion
15.34383302 rev/d
Perigee alt
461.8 km
Apogee alt
463.7 km
Semi-major
6,840.9 km
B*
3.9197e-4
RAAN
204.9804°
Arg perigee
78.4933°
Mean anomaly
127.7996°
Rev number
586

§ Raw data

STARLINK-35551 51863U 22022M   26263.16670139  .00012883  00000+0  39197-3 0  99962 51863  53.1589 204.9804 0001423  78.4933 127.7996 15.34383302  5869

JSON: /api/v1/satellites/51863 · /tle

For live sub-satellite position, see the globe view (requires WebGL).

§ Visibility from observer

Set your observer location to see the next 7 days of passes ≥ 10°. The values pass through the URL so the page stays shareable.

No JS? Fill the form by hand. The geolocation button needs JavaScript.